Simultaneous Nadir Overpasses (SNOs) Predictions

Prediction of SNOs between GOES-16 and NOAA-20 Satellite Orbit:

Table of predicted SNOs for the next 14.0 days since TLE Epoch: 6/29/2024
Index Date Time (GOES-16) GOES-16 Lat,Lon NOAA-20 Lat,Lon Distance(km) Time Diff (sec)
1 06/30/2024 06:37:57 0.04, -75.21 0.64, -77.91 308.04 80
2 07/01/2024 06:16:34 0.03, -75.21 -0.40, -73.39 208.17 80
3 07/02/2024 18:41:11 -0.03, -75.22 -0.80, -78.70 396.58 80
4 07/03/2024 18:19:48 -0.02, -75.22 0.25, -74.18 119.85 80
5 07/05/2024 06:44:16 0.01, -75.24 0.95, -79.45 480.03 80
6 07/06/2024 06:22:53 0.01, -75.25 -0.09, -74.93 36.90 80
7 07/08/2024 18:28:45 -0.00, -75.28 -0.10, -75.71 49.23 80
8 07/09/2024 18:07:22 -0.00, -75.30 0.95, -71.19 468.60 80
9 07/11/2024 06:31:50 0.01, -75.33 0.24, -76.47 128.97 80
10 07/12/2024 06:10:26 0.01, -75.35 -0.76, -71.94 389.32 80
